TimeMST,TemperatureF,Dew PointF,Humidity,Sea Level PressureIn,VisibilityMPH,Wind Direction,Wind SpeedMPH,Gust SpeedMPH,PrecipitationIn,Events,Conditions,WindDirDegrees,DateUTC
12:15 AM,24.3,8.6,51,30.10,10.0,ENE,5.8,-,N/A,,Clear,70,2013-02-19 07:15:00
12:35 AM,26.4,8.6,47,30.09,10.0,ENE,8.1,-,N/A,,Clear,70,2013-02-19 07:35:00
12:55 AM,26.8,9.0,47,30.09,10.0,NE,6.9,-,N/A,,Clear,50,2013-02-19 07:55:00
1:15 AM,24.8,9.1,51,30.10,10.0,Calm,Calm,-,N/A,,Clear,0,2013-02-19 08:15:00
1:35 AM,25.3,9.1,50,30.09,10.0,Calm,Calm,-,N/A,,Clear,0,2013-02-19 08:35:00
1:55 AM,23.4,9.0,54,30.09,10.0,East,3.5,-,N/A,,Clear,80,2013-02-19 08:55:00
2:15 AM,21.9,9.3,58,30.09,10.0,ENE,4.6,-,N/A,,Clear,60,2013-02-19 09:15:00
2:35 AM,21.9,9.3,58,30.08,10.0,NNE,8.1,-,N/A,,Clear,30,2013-02-19 09:35:00
2:55 AM,21.2,9.3,60,30.08,10.0,NE,5.8,-,N/A,,Clear,40,2013-02-19 09:55:00
3:15 AM,21.7,9.0,58,30.08,10.0,NE,3.5,-,N/A,,Clear,50,2013-02-19 10:15:00
3:35 AM,21.0,8.8,59,30.07,10.0,NE,4.6,-,N/A,,Clear,40,2013-02-19 10:35:00
3:55 AM,20.5,8.6,60,30.07,10.0,ENE,5.8,-,N/A,,Clear,60,2013-02-19 10:55:00
4:15 AM,20.7,8.2,59,30.06,10.0,NNE,5.8,-,N/A,,Clear,30,2013-02-19 11:15:00
4:55 AM,18.0,7.7,64,30.06,10.0,NE,6.9,-,N/A,,Clear,50,2013-02-19 11:55:00
5:15 AM,19.0,7.5,61,30.05,10.0,NE,6.9,-,N/A,,Clear,40,2013-02-19 12:15:00
5:35 AM,19.4,7.7,60,30.05,10.0,NE,8.1,-,N/A,,Clear,50,2013-02-19 12:35:00
5:55 AM,19.9,7.5,59,30.05,10.0,ENE,6.9,-,N/A,,Clear,60,2013-02-19 12:55:00
6:15 AM,17.6,7.5,65,30.05,10.0,NE,3.5,-,N/A,,Clear,40,2013-02-19 13:15:00
6:35 AM,18.3,7.5,63,30.04,10.0,ENE,5.8,-,N/A,,Clear,70,2013-02-19 13:35:00
6:55 AM,18.3,7.5,63,30.05,10.0,SE,3.5,-,N/A,,Clear,130,2013-02-19 13:55:00
7:15 AM,17.1,7.9,67,30.05,10.0,Calm,Calm,-,N/A,,Clear,0,2013-02-19 14:15:00
7:35 AM,20.3,9.3,63,30.05,10.0,North,3.5,-,N/A,,Clear,10,2013-02-19 14:35:00
7:55 AM,22.6,7.5,52,30.04,10.0,ENE,5.8,-,N/A,,Clear,70,2013-02-19 14:55:00
8:35 AM,26.4,6.8,43,30.04,10.0,East,5.8,-,N/A,,Clear,90,2013-02-19 15:35:00
8:55 AM,27.3,5.7,40,30.03,10.0,Calm,Calm,-,N/A,,Clear,0,2013-02-19 15:55:00
9:15 AM,29.3,6.1,37,30.02,10.0,Calm,Calm,-,N/A,,Clear,0,2013-02-19 16:15:00
9:35 AM,30.6,6.3,36,30.00,10.0,Calm,Calm,-,N/A,,Clear,0,2013-02-19 16:35:00
9:55 AM,32.9,6.3,33,29.99,10.0,East,4.6,-,N/A,,Clear,90,2013-02-19 16:55:00
10:15 AM,33.6,6.6,32,29.97,10.0,ESE,4.6,-,N/A,,Clear,110,2013-02-19 17:15:00
10:35 AM,35.2,7.0,31,29.96,10.0,SE,4.6,-,N/A,,Clear,130,2013-02-19 17:35:00
10:55 AM,37.0,6.6,28,29.95,10.0,East,3.5,-,N/A,,Clear,80,2013-02-19 17:55:00
11:15 AM,39.2,6.1,25,29.94,10.0,ESE,4.6,-,N/A,,Clear,110,2013-02-19 18:15:00
11:35 AM,40.5,3.9,22,29.93,10.0,East,4.6,-,N/A,,Clear,100,2013-02-19 18:35:00
11:55 AM,40.5,3.0,21,29.90,10.0,Calm,Calm,-,N/A,,Clear,0,2013-02-19 18:55:00
12:15 PM,42.8,2.3,19,29.88,10.0,Calm,Calm,-,N/A,,Clear,0,2013-02-19 19:15:00
12:35 PM,43.7,3.2,19,29.86,10.0,Calm,Calm,-,N/A,,Clear,0,2013-02-19 19:35:00
12:55 PM,46.2,0.5,15,29.84,10.0,ESE,4.6,-,N/A,,Clear,120,2013-02-19 19:55:00
1:15 PM,45.5,1.4,16,29.82,10.0,Calm,Calm,-,N/A,,Clear,0,2013-02-19 20:15:00
1:35 PM,49.6,2.5,15,29.80,10.0,NE,4.6,-,N/A,,Clear,40,2013-02-19 20:35:00
1:55 PM,51.8,1.6,13,29.79,10.0,East,4.6,-,N/A,,Clear,80,2013-02-19 20:55:00
2:15 PM,53.2,0.3,12,29.77,10.0,NE,3.5,-,N/A,,Clear,40,2013-02-19 21:15:00
2:35 PM,52.7,0.7,12,29.77,10.0,Calm,Calm,-,N/A,,Clear,0,2013-02-19 21:35:00
2:55 PM,52.9,0.3,12,29.76,10.0,NE,4.6,-,N/A,,Clear,40,2013-02-19 21:55:00
3:15 PM,53.1,0.5,12,29.75,10.0,ENE,4.6,-,N/A,,Clear,70,2013-02-19 22:15:00
3:35 PM,52.9,0.3,12,29.74,10.0,Calm,Calm,-,N/A,,Clear,0,2013-02-19 22:35:00
3:55 PM,52.7,1.6,12,29.74,10.0,NNE,4.6,-,N/A,,Clear,30,2013-02-19 22:55:00
4:15 PM,52.0,1.9,13,29.73,10.0,Calm,Calm,-,N/A,,Clear,0,2013-02-19 23:15:00
5:35 PM,49.1,5.5,17,29.72,10.0,South,4.6,-,N/A,,Clear,190,2013-02-20 00:35:00
5:55 PM,46.8,4.6,18,29.72,10.0,Calm,Calm,-,N/A,,Clear,0,2013-02-20 00:55:00
6:15 PM,45.9,5.9,19,29.72,10.0,Calm,Calm,-,N/A,,Clear,0,2013-02-20 01:15:00
6:35 PM,45.5,5.2,19,29.72,10.0,SSW,4.6,-,N/A,,Clear,210,2013-02-20 01:35:00
6:55 PM,44.2,3.9,19,29.72,10.0,Calm,Calm,-,N/A,,Clear,0,2013-02-20 01:55:00
7:15 PM,39.9,6.4,25,29.71,10.0,Calm,Calm,-,N/A,,Clear,0,2013-02-20 02:15:00
7:35 PM,41.4,5.0,22,29.71,10.0,Calm,Calm,-,N/A,,Clear,0,2013-02-20 02:35:00
7:55 PM,38.3,7.2,28,29.71,10.0,Calm,Calm,-,N/A,,Clear,0,2013-02-20 02:55:00
8:15 PM,39.9,5.0,23,29.71,10.0,Calm,Calm,-,N/A,,Clear,0,2013-02-20 03:15:00
8:55 PM,38.3,6.4,27,29.70,10.0,Calm,Calm,-,N/A,,Clear,0,2013-02-20 03:55:00
9:15 PM,35.6,6.4,30,29.69,10.0,NW,3.5,-,N/A,,Clear,310,2013-02-20 04:15:00
9:35 PM,35.1,6.3,30,29.69,10.0,Calm,Calm,-,N/A,,Clear,0,2013-02-20 04:35:00
9:55 PM,33.4,6.1,32,29.69,10.0,Calm,Calm,-,N/A,,Clear,0,2013-02-20 04:55:00
10:15 PM,33.4,7.3,34,29.69,10.0,Calm,Calm,-,N/A,,Clear,0,2013-02-20 05:15:00
10:35 PM,33.3,6.4,32,29.69,10.0,ENE,3.5,-,N/A,,Clear,70,2013-02-20 05:35:00
10:55 PM,32.0,7.3,36,29.69,10.0,Calm,Calm,-,N/A,,Clear,0,2013-02-20 05:55:00
11:15 PM,30.7,9.0,40,29.68,10.0,Calm,Calm,-,N/A,,Clear,0,2013-02-20 06:15:00
11:35 PM,30.4,9.0,41,29.68,10.0,Calm,Calm,-,N/A,,Clear,0,2013-02-20 06:35:00
11:55 PM,29.3,9.9,44,29.68,10.0,ESE,3.5,-,N/A,,Clear,110,2013-02-20 06:55:00